Weather History for KN60 - March, 2013

Nearest airport to NA, NA.

See history from more local stations
Change the Weather History Date:

Thursday, March 28, 2013

  Actual Average Record
Temperature  
Mean Temperature 23 °F -  
Max Temperature 36 °F 40 °F 67 °F (2015)
Min Temperature 9 °F 22 °F 9 °F (2013)
Degree Days  
Heating Degree Days 42    
Month to date heating degree days 1387  
Moisture  
Dew Point 18 °F    
Average Humidity 87    
Maximum Humidity 92    
Minimum Humidity 82    
Precipitation  
Precipitation 0.00 in - - ()
Month to date precipitation 0.95  
Year to date precipitation 2.04  
Sea Level Pressure  
Sea Level Pressure 30.25 in    
Wind  
Wind Speed 2 mph (ENE)    
Max Wind Speed 7 mph    
Max Gust Speed 10 mph    
Averages and records for this station are not official NWS values.
T = Trace of Precipitation, MM = Missing Value Source: NWS Daily Summary

Daily Weather History Graph

Daily Weather History Graph

Search for Another Location

Airport or City:

Trip Planner

Search our weather history database for the weather conditions in past years. The results will help you decide how hot, cold, wet, or windy it might be!

Date:

Astronomy

Mar. 28, 2013 Rise Set
Actual Time 7:31 AM CDT 8:10 PM CDT
Civil Twilight 7:00 AM CDT 8:41 PM CDT
Nautical Twilight 6:24 AM CDT 9:18 PM CDT
Astronomical Twilight 5:45 AM CDT 9:57 PM CDT
Moon 10:15 PM CDT (3/28) 7:52 AM CDT (3/28)
Length of Visible Light 13h 40m
Length of Day
12h 38m
Full, 98% of the Moon is Illuminated
Mar 28
Full
Apr 2
Last Quarter
Apr 10
New
Apr 18
First Quarter
Apr 25
Full

Hourly Weather History & Observations

Time (CDT) Temp. Windchill Dew Point Humidity Pressure Visibility Wind Dir Wind Speed Gust Speed Precip Events Conditions
12:52 AM 17.1 °F 10.0 °F 15.1 °F 92% 30.25 in - NE 4.6 mph - N/A   Unknown
1:52 AM 14.0 °F - 10.9 °F 88% 30.25 in - Calm Calm - N/A   Unknown
2:52 AM 10.0 °F - 8.1 °F 92% 30.25 in - Calm Calm - N/A   Unknown
3:52 AM 10.0 °F - 8.1 °F 92% 30.24 in - Calm Calm - N/A   Unknown
4:52 AM 10.0 °F - 7.0 °F 87% 30.24 in - Calm Calm - N/A   Unknown
5:52 AM 10.9 °F - 8.1 °F 88% 30.23 in - Calm Calm - N/A   Unknown
6:52 AM 12.9 °F 6.9 °F 10.9 °F 92% 30.23 in - NNE 3.5 mph - N/A   Unknown
7:52 AM 12.9 °F - 10.9 °F 92% 30.24 in - Calm Calm - N/A   Unknown
8:52 AM 15.1 °F - 14.0 °F 95% 30.26 in - Calm Calm - N/A   Unknown
9:52 AM 17.1 °F - 15.1 °F 92% 30.26 in - Calm Calm - N/A   Unknown
10:52 AM 21.0 °F - 19.0 °F 92% 30.27 in - Calm Calm - N/A   Unknown
11:52 AM 25.0 °F - 21.9 °F 88% 30.27 in - Calm Calm - N/A   Unknown
12:52 PM 24.1 °F 19.7 °F 21.9 °F 91% 30.27 in - East 3.5 mph - N/A   Unknown
1:52 PM 27.0 °F 23.0 °F 25.0 °F 92% 30.27 in - ESE 3.5 mph - N/A   Unknown
2:52 PM 28.9 °F 25.2 °F 27.0 °F 92% 30.26 in - East 3.5 mph - N/A   Unknown
3:52 PM 34.0 °F 29.8 °F 28.9 °F 82% 30.25 in - NE 4.6 mph - N/A   Unknown
4:52 PM 35.1 °F 32.2 °F 30.0 °F 82% 30.24 in - NE 3.5 mph - N/A   Unknown
5:52 PM 34.0 °F 28.8 °F 28.9 °F 82% 30.24 in - ENE 5.8 mph - N/A   Unknown
6:52 PM 30.9 °F 25.2 °F 26.1 °F 82% 30.25 in - NE 5.8 mph - N/A   Unknown
7:52 PM 28.0 °F 24.2 °F 24.1 °F 85% 30.26 in - NE 3.5 mph - N/A   Unknown
8:52 PM 25.0 °F 20.7 °F 21.9 °F 88% 30.26 in - NNE 3.5 mph - N/A   Unknown
9:52 PM 23.0 °F 18.4 °F 19.9 °F 88% 30.27 in - ENE 3.5 mph - N/A   Unknown
10:52 PM 18.0 °F 9.8 °F 16.0 °F 92% 30.27 in - East 5.8 mph - N/A   Unknown
11:52 PM 17.1 °F 8.7 °F 15.1 °F 92% 30.27 in - East 5.8 mph - N/A   Unknown